Weather History for Charlevoix, MI

Change the Weather History Date:

Monday, March 11, 2013

  Actual Average Record
Temperature  
Mean Temperature 37 °F -  
Max Temperature 42 °F 33 °F 62 °F (2012)
Min Temperature 32 °F 16 °F 10 °F (2003)
Degree Days  
Heating Degree Days 28    
Moisture  
Dew Point 37 °F    
Average Humidity 100    
Maximum Humidity 100    
Minimum Humidity 99    
Precipitation  
Precipitation 0.00 in - - ()
Sea Level Pressure  
Sea Level Pressure 29.57 in    
Wind  
Wind Speed 9 mph (South)    
Max Wind Speed 16 mph    
Max Gust Speed 23 mph    
Visibility 4 miles    
Events Fog , Rain , Snow    
Averages and records for this station are not official NWS values.
T = Trace of Precipitation, MM = Missing Value Source: NWS Daily Summary

Daily Weather History Graph

Daily Weather History Graph

Search for Another Location

Airport:

Trip Planner

Search our weather history database for the weather conditions in past years. The results will help you decide how hot, cold, wet, or windy it might be!

Date:

Astronomy

Mar. 11, 2013 Rise Set
Actual Time 8:00 AM EDT 7:42 PM EDT
Civil Twilight 7:31 AM EDT 8:11 PM EDT
Nautical Twilight 6:57 AM EDT 8:45 PM EDT
Astronomical Twilight 6:22 AM EDT 9:20 PM EDT
Moon 7:32 AM EDT (3/11) 7:56 PM EDT (3/11)
Length of Visible Light 12h 40m
Length of Day
11h 41m
Waning Crescent, 0% of the Moon is Illuminated
Mar 11
Waning Crescent
Mar 11
New
Mar 19
First Quarter
Mar 27
Full
Apr 3
Last Quarter

Hourly Weather History & Observations

Time (EDT) Temp. Windchill Dew Point Humidity Pressure Visibility Wind Dir Wind Speed Gust Speed Precip Events Conditions
12:15 AM 34.7 °F 25.9 °F 34.7 °F 100% 29.82 in 4.0 mi East 12.7 mph - N/A Rain Light Rain
12:35 AM 34.9 °F 26.2 °F 34.9 °F 100% 29.80 in 5.0 mi East 12.7 mph - N/A Rain Light Rain
12:54 AM 34.9 °F 27.1 °F 34.9 °F 100% 29.79 in 4.0 mi East 10.4 mph - N/A Rain Rain
1:15 AM 34.7 °F 26.4 °F 34.7 °F 100% 29.77 in 3.0 mi East 11.5 mph - N/A Rain Rain
1:34 AM 35.1 °F 26.4 °F 35.1 °F 100% 29.74 in 7.0 mi East 12.7 mph - N/A   Light Drizzle
1:54 AM 35.6 °F 27.5 °F 35.6 °F 100% 29.74 in 10.0 mi East 11.5 mph - N/A   Overcast
2:15 AM 35.8 °F 26.1 °F 35.8 °F 100% 29.72 in 7.0 mi ESE 16.1 mph 20.7 mph N/A Rain Light Rain
2:55 AM 35.6 °F 26.2 °F 35.6 °F 100% 29.70 in 5.0 mi ESE 15.0 mph - N/A Rain Light Rain
3:14 AM 36.0 °F 26.7 °F 36.0 °F 100% 29.69 in 10.0 mi ESE 15.0 mph 20.7 mph N/A Rain Light Rain
3:34 AM 36.0 °F 27.5 °F 36.0 °F 100% 29.68 in 5.0 mi ESE 12.7 mph - N/A Rain Light Rain
3:55 AM 36.3 °F 28.4 °F 36.3 °F 100% 29.66 in 10.0 mi ESE 11.5 mph - N/A   Overcast
4:14 AM 36.5 °F 28.7 °F 36.5 °F 100% 29.65 in 10.0 mi ESE 11.5 mph 19.6 mph N/A   Overcast
4:35 AM 36.7 °F 29.4 °F 36.7 °F 100% 29.64 in 10.0 mi ESE 10.4 mph - N/A   Overcast
4:54 AM 37.2 °F 29.6 °F 37.2 °F 100% 29.63 in 10.0 mi ESE 11.5 mph - N/A   Overcast
5:14 AM 37.4 °F 30.3 °F 37.4 °F 100% 29.62 in 10.0 mi ESE 10.4 mph - N/A   Overcast
5:35 AM 37.6 °F 31.0 °F 37.6 °F 100% 29.61 in 10.0 mi ESE 9.2 mph - N/A   Overcast
5:54 AM 38.3 °F 31.9 °F 38.3 °F 100% 29.60 in 10.0 mi ESE 9.2 mph - N/A   Overcast
6:15 AM 38.3 °F 31.9 °F 38.3 °F 100% 29.61 in 10.0 mi ESE 9.2 mph - N/A   Overcast
6:34 AM 38.7 °F 32.9 °F 38.7 °F 100% 29.60 in 10.0 mi ESE 8.1 mph - N/A   Overcast
6:54 AM 38.7 °F 32.9 °F 38.7 °F 100% 29.60 in 10.0 mi ESE 8.1 mph - N/A   Overcast
7:13 AM 38.7 °F 33.6 °F 38.7 °F 100% 29.60 in 4.0 mi ESE 6.9 mph - N/A   Drizzle
7:34 AM 38.5 °F 32.7 °F 38.5 °F 100% 29.59 in 2.0 mi ESE 8.1 mph - N/A   Light Drizzle
7:54 AM 38.8 °F 34.6 °F 38.8 °F 100% 29.59 in 2.5 mi SE 5.8 mph - N/A   Overcast
8:14 AM 38.5 °F 35.0 °F 38.5 °F 100% 29.59 in 1.8 mi SE 4.6 mph - N/A   Overcast
8:34 AM 38.7 °F 36.3 °F 38.7 °F 100% 29.59 in 1.2 mi ESE 3.5 mph - N/A   Overcast
8:55 AM 38.8 °F 35.4 °F 38.8 °F 100% 29.59 in 1.5 mi ESE 4.6 mph - N/A   Overcast
9:14 AM 38.7 °F - 38.7 °F 100% 29.60 in 1.0 mi Calm Calm - N/A   Overcast
9:34 AM 39.2 °F 37.0 °F 39.2 °F 100% 29.60 in 1.8 mi SE 3.5 mph - N/A   Overcast
9:55 AM 38.5 °F - 38.5 °F 100% 29.60 in 1.0 mi Calm Calm - N/A   Overcast
10:14 AM 37.9 °F 34.4 °F 37.9 °F 100% 29.61 in 0.2 mi NW 4.6 mph - N/A   Light Drizzle
10:34 AM 39.4 °F - 39.4 °F 100% 29.60 in 0.2 mi Calm Calm - N/A Fog Fog
10:55 AM 40.5 °F - 40.5 °F 100% 29.58 in 0.2 mi Calm Calm - N/A Fog Fog
11:14 AM 39.4 °F - 39.4 °F 100% 29.59 in 0.2 mi Calm Calm - N/A Fog Fog
11:34 AM 39.6 °F 37.4 °F 39.6 °F 100% 29.59 in 0.2 mi ESE 3.5 mph - N/A Fog Fog
11:55 AM 40.1 °F - 40.1 °F 100% 29.59 in 0.2 mi Calm Calm - N/A Fog Fog
12:14 PM 38.1 °F - 38.1 °F 100% 29.57 in 0.2 mi Calm Calm - N/A Fog Fog
12:35 PM 41.0 °F 37.1 °F 41.0 °F 100% 29.56 in 0.2 mi SW 5.8 mph - N/A Fog Fog
12:55 PM 41.9 °F 40.0 °F 41.9 °F 100% 29.56 in 10.0 mi SSW 3.5 mph - N/A   Overcast
1:14 PM 41.9 °F 39.0 °F 41.9 °F 100% 29.56 in 10.0 mi South 4.6 mph - N/A   Overcast
1:35 PM 42.1 °F 37.7 °F 42.1 °F 100% 29.56 in 10.0 mi South 6.9 mph - N/A   Overcast
1:54 PM 41.9 °F 38.2 °F 41.9 °F 100% 29.55 in 7.0 mi SW 5.8 mph - N/A   Overcast
2:14 PM 42.1 °F 38.4 °F 41.9 °F 99% 29.55 in 10.0 mi SSW 5.8 mph - N/A   Overcast
2:35 PM 41.9 °F 40.0 °F 41.9 °F 100% 29.53 in 10.0 mi SW 3.5 mph - N/A   Overcast
2:54 PM 41.9 °F 39.0 °F 41.7 °F 99% 29.52 in 10.0 mi SW 4.6 mph - N/A   Overcast
3:14 PM 41.9 °F 40.0 °F 41.9 °F 100% 29.52 in 10.0 mi SW 3.5 mph - N/A   Overcast
3:35 PM 41.5 °F - 41.4 °F 99% 29.51 in 10.0 mi Calm Calm - N/A   Overcast
3:54 PM 41.9 °F 38.2 °F 41.5 °F 99% 29.50 in 7.0 mi WNW 5.8 mph - N/A   Overcast
4:14 PM 40.5 °F 35.8 °F 40.1 °F 99% 29.49 in 5.0 mi NW 6.9 mph - N/A   Overcast
4:35 PM 37.0 °F 29.8 °F 37.0 °F 100% 29.49 in 0.8 mi West 10.4 mph - N/A   Overcast
4:54 PM 36.5 °F 29.7 °F 36.5 °F 100% 29.49 in 0.2 mi WNW 9.2 mph - N/A Fog Fog
5:14 PM 35.8 °F 30.9 °F 35.8 °F 100% 29.48 in 0.2 mi NW 5.8 mph - N/A Fog Fog
5:35 PM 35.4 °F - 35.4 °F 100% 29.47 in 0.2 mi Calm Calm - N/A Fog Fog
5:54 PM 34.9 °F 32.0 °F 34.9 °F 100% 29.47 in 0.2 mi North 3.5 mph - N/A Fog Fog
6:15 PM 35.1 °F 31.0 °F 35.1 °F 100% 29.46 in 1.0 mi North 4.6 mph - N/A   Overcast
6:35 PM 35.1 °F 32.2 °F 35.1 °F 100% 29.46 in 0.8 mi North 3.5 mph - N/A   Drizzle
7:15 PM 34.7 °F 30.6 °F 34.7 °F 100% 29.47 in 1.2 mi NW 4.6 mph - N/A Rain Rain
7:34 PM 34.3 °F 30.2 °F 34.3 °F 100% 29.47 in 1.5 mi West 4.6 mph - N/A Rain Rain
7:54 PM 34.2 °F 29.0 °F 34.2 °F 100% 29.47 in 3.0 mi WNW 5.8 mph - N/A Rain Light Rain
8:15 PM 34.0 °F 29.8 °F 34.0 °F 100% 29.46 in 3.0 mi West 4.6 mph - N/A Rain Light Rain
8:34 PM 33.8 °F 28.6 °F 33.8 °F 100% 29.46 in 3.0 mi West 5.8 mph - N/A   Overcast
8:55 PM 33.8 °F 26.4 °F 33.8 °F 100% 29.47 in 3.0 mi West 9.2 mph - N/A   Overcast
9:14 PM 33.8 °F 25.8 °F 33.8 °F 100% 29.47 in 3.0 mi West 10.4 mph - N/A   Overcast
9:34 PM 33.4 °F 25.9 °F 33.4 °F 100% 29.47 in 3.0 mi WSW 9.2 mph - N/A   Overcast
9:55 PM 32.5 °F 25.5 °F 32.5 °F 100% 29.48 in 1.5 mi WSW 8.1 mph - N/A Snow Light Snow
10:14 PM 32.2 °F 24.4 °F 32.2 °F 100% 29.48 in 1.0 mi WSW 9.2 mph - N/A Snow Snow
10:35 PM 32.4 °F 22.5 °F 32.4 °F 100% 29.48 in 1.0 mi West 13.8 mph - N/A Snow Snow
10:54 PM 32.2 °F 21.4 °F 32.2 °F 100% 29.48 in 0.8 mi West 16.1 mph - N/A Snow Snow
11:15 PM 32.2 °F 21.4 °F 32.2 °F 100% 29.49 in 1.0 mi West 16.1 mph - N/A Snow Snow
11:35 PM 32.0 °F 21.2 °F 32.0 °F 100% 29.49 in 1.5 mi West 16.1 mph 20.7 mph N/A Snow Light Snow
11:54 PM 32.0 °F 21.6 °F 32.0 °F 100% 29.51 in 1.8 mi West 15.0 mph 23.0 mph N/A Snow Light Snow